Flag for Egypt Weather past 2 weeks in Port Said, Egypt

Now
79 °F

Passing clouds.


Feels Like: 82 °F
Forecast: 77 / 88 °F
Wind: 9 mph from Northwest

Location: Port Said Airport

Current Time: Jul 31, 2014 at 2:04:06 AM

Latest Report: Jul 31, 2014 at 1:00 AM


Visibility: N/A

Pressure: 29.77 "Hg

Humidity: 84%

Dew point: 73 °F

Location of Port SaidLocation

Historic Weather in Port Said — Graph

°F

Port Said temperature yesterday

Maximum temperature yesterday: 84 °F (at 10:00 AM)
Minimum temperature yesterday: 79 °F (at 3:00 AM)
Average temperature yesterday: 82 °F

Past Weeks' High & Low Weather Summary

 TemperatureHumidityPressure
High90 °F (Jul 20, 1:00 PM)89% (Jul 16, 4:00 AM)29.92 "Hg (Jul 16, 4:00 AM)
Low75 °F (Jul 16, 6:00 AM)49% (Jul 20, 1:00 PM)29.74 "Hg (Jul 20, 4:00 PM)
Average81 °F73%29.81 "Hg
* Reported Midnight between Jul 15 and Jul 16 — Midnight between Jul 30 and Jul 31, Port Said, Weather by CustomWeather, © 2014

Note: Actual official high and low records may vary slightly from our data, if they occured in-between our weather recording intervals... More about our weather records

Advertising

Port Said weather history for previous 24 hours

 ConditionsComfort  
Time TempWeatherWind HumidityBarometerVisibility
12:00 AM
Jul 31
79 °FPassing clouds.12 mph84%29.77 "HgN/A
11:00 PM
Jul 30
81 °FPassing clouds.13 mph84%29.77 "HgN/A
10:00 PM81 °FPassing clouds.13 mph84%29.77 "HgN/A
9:00 PM81 °FPassing clouds.14 mph84%29.77 "HgN/A
8:00 PM81 °FClear.10 mph84%29.77 "Hg10 mi
7:00 PM81 °FPassing clouds.13 mph84%29.77 "HgN/A
6:00 PM82 °FPassing clouds.15 mph79%29.74 "HgN/A
5:00 PM84 °FSunny.16 mph74%29.74 "Hg10 mi
4:00 PM84 °FSunny.17 mph74%29.74 "Hg10 mi
3:00 PM84 °FSunny.16 mph74%29.74 "Hg10 mi
2:00 PM84 °FSunny.14 mph74%29.77 "Hg10 mi
1:00 PM84 °FSunny.14 mph74%29.77 "Hg10 mi
12:00 PM84 °FPassing clouds.13 mph70%29.77 "HgN/A
11:00 AM84 °FPassing clouds.8 mph74%29.77 "HgN/A
10:00 AM84 °FPassing clouds.10 mph70%29.77 "HgN/A
9:00 AM82 °FPassing clouds.10 mph79%29.77 "HgN/A
8:00 AM82 °FSunny.9 mph74%29.77 "Hg10 mi
7:00 AM81 °FSunny.12 mph74%29.77 "Hg10 mi
6:00 AM79 °FSunny.10 mph79%29.74 "Hg10 mi
5:00 AM79 °FClear.12 mph79%29.74 "Hg10 mi
4:00 AM79 °FClear.8 mph79%29.74 "Hg10 mi
3:00 AM79 °FClear.6 mph79%29.74 "Hg10 mi
2:00 AM81 °FClear.7 mph74%29.74 "Hg10 mi
Weather by CustomWeather, © 2014

See weather overviewHow to use our weather pages